| time (UTC) | temp F | wind direction | speed MPH | gust MPH | rain 1hr in | rain 24hr in | rain mn in | humidity % | barometer mb |
| 20260903065030 | 79 | 48 | 0.0 | 1.0 | 0.00 | 0.01 | 0.00 | 100 | 1012.6 |
| 20260903064527 | 79 | 48 | 0.0 | 1.0 | 0.00 | 0.01 | 0.00 | 100 | 1012.7 |
| 20260903064023 | 79 | 48 | 0.0 | 1.0 | 0.00 | 0.01 | 0.00 | 100 | 1012.7 |
| 20260903063532 | 79 | 48 | 0.0 | 1.0 | 0.00 | 0.01 | 0.00 | 100 | 1012.7 |
| 20260903063030 | 79 | 48 | 0.0 | 1.0 | 0.00 | 0.01 | 0.00 | 100 | 1013.0 |
| 20260903062526 | 79 | 48 | 0.0 | 0.0 | 0.00 | 0.01 | 0.00 | 100 | 1013.0 |
| 20260903062022 | 79 | 48 | 0.0 | 0.0 | 0.00 | 0.01 | 0.00 | 100 | 1013.0 |
| 20260903061520 | 79 | 48 | 0.0 | 0.0 | 0.00 | 0.01 | 0.00 | 100 | 1013.2 |
| 20260903061032 | 79 | 48 | 0.0 | 0.0 | 0.00 | 0.01 | 0.00 | 100 | 1013.2 |
| 20260903060529 | 79 | 48 | 0.0 | 0.0 | 0.00 | 0.01 | 0.00 | 100 | 1013.2 |
| 20260903060026 | 79 | 48 | 0.0 | 2.0 | 0.00 | 0.01 | 0.00 | 100 | 1013.3 |
| 20260903055542 | 79 | 48 | 0.0 | 2.0 | 0.00 | 0.01 | 0.00 | 100 | 1013.3 |
| 20260903055031 | 79 | 40 | 0.0 | 3.0 | 0.00 | 0.01 | 0.00 | 100 | 1013.3 |
| 20260903054542 | 79 | 105 | 1.0 | 3.0 | 0.00 | 0.01 | 0.00 | 99 | 1013.7 |
| 20260903054030 | 79 | 42 | 0.0 | 1.0 | 0.00 | 0.01 | 0.00 | 99 | 1013.7 |
| 20260903053559 | 79 | 42 | 0.0 | 1.0 | 0.00 | 0.01 | 0.00 | 99 | 1013.7 |
| 20260903053032 | 79 | 42 | 0.0 | 3.0 | 0.00 | 0.01 | 0.00 | 98 | 1013.8 |
| 20260903034532 | 80 | 120 | 0.0 | 1.0 | 0.00 | 0.01 | 0.01 | 95 | 1014.7 |
| 20260903034028 | 80 | 120 | 0.0 | 1.0 | 0.00 | 0.01 | 0.01 | 95 | 1014.7 |
| 20260903033532 | 80 | 120 | 0.0 | 1.0 | 0.00 | 0.01 | 0.01 | 94 | 1014.7 |
| 20260903033028 | 80 | 120 | 0.0 | 2.0 | 0.00 | 0.01 | 0.01 | 94 | 1014.7 |
| 20260903032557 | 80 | 120 | 1.0 | 2.0 | 0.00 | 0.01 | 0.01 | 94 | 1014.7 |
| 20260903032032 | 80 | 120 | 0.0 | 2.0 | 0.00 | 0.01 | 0.01 | 93 | 1014.7 |
| 20260903031528 | 80 | 112 | 0.0 | 1.0 | 0.00 | 0.01 | 0.01 | 93 | 1014.7 |
| 20260903031036 | 80 | 112 | 0.0 | 1.0 | 0.00 | 0.01 | 0.01 | 92 | 1014.7 |
| 20260903030532 | 80 | 112 | 0.0 | 1.0 | 0.00 | 0.01 | 0.01 | 92 | 1014.7 |
| 20260903030028 | 80 | 71 | 0.0 | 0.0 | 0.00 | 0.01 | 0.01 | 92 | 1014.7 |
| 20260903025536 | 80 | 71 | 0.0 | 0.0 | 0.00 | 0.01 | 0.01 | 92 | 1014.7 |
| 20260903025032 | 80 | 71 | 0.0 | 0.0 | 0.00 | 0.01 | 0.01 | 91 | 1014.7 |
| 20260903024529 | 80 | 71 | 0.0 | 0.0 | 0.00 | 0.01 | 0.01 | 91 | 1014.4 |
| 20260903024056 | 81 | 71 | 0.0 | 1.0 | 0.00 | 0.01 | 0.01 | 91 | 1014.4 |
| 20260903023531 | 81 | 51 | 0.0 | 1.0 | 0.00 | 0.01 | 0.01 | 91 | 1014.4 |
| 20260903023027 | 81 | 51 | 0.0 | 1.0 | 0.00 | 0.01 | 0.01 | 91 | 1014.5 |
| 20260903022552 | 81 | 74 | 0.0 | 1.0 | 0.00 | 0.01 | 0.01 | 91 | 1014.5 |
| 20260903022027 | 81 | 137 | 0.0 | 1.0 | 0.00 | 0.01 | 0.01 | 90 | 1014.5 |
| 20260903021523 | 81 | 137 | 0.0 | 1.0 | 0.00 | 0.01 | 0.01 | 90 | 1014.5 |
| 20260903021031 | 81 | 137 | 0.0 | 1.0 | 0.00 | 0.01 | 0.01 | 90 | 1014.5 |
| 20260903020524 | 81 | 137 | 1.0 | 3.0 | 0.00 | 0.01 | 0.01 | 90 | 1014.5 |
| 20260903020033 | 81 | 83 | 0.0 | 3.0 | 0.00 | 0.01 | 0.01 | 90 | 1014.4 |
| 20260903015527 | 81 | 79 | 0.0 | 3.0 | 0.00 | 0.01 | 0.01 | 89 | 1014.4 |
| 20260903015044 | 81 | 78 | 1.0 | 3.0 | 0.00 | 0.01 | 0.01 | 89 | 1014.4 |
| 20260903014530 | 81 | 125 | 0.0 | 1.0 | 0.00 | 0.01 | 0.01 | 89 | 1014.3 |
| 20260903014026 | 81 | 129 | 0.0 | 5.0 | 0.00 | 0.01 | 0.01 | 89 | 1014.3 |
| 20260903013543 | 81 | 141 | 3.0 | 5.0 | 0.00 | 0.01 | 0.01 | 89 | 1014.3 |
| 20260903013037 | 81 | 146 | 1.0 | 3.0 | 0.00 | 0.01 | 0.01 | 90 | 1014.2 |
| 20260903012532 | 81 | 134 | 1.0 | 3.0 | 0.00 | 0.01 | 0.01 | 90 | 1014.2 |
| 20260903012029 | 81 | 78 | 1.0 | 5.0 | 0.00 | 0.01 | 0.01 | 90 | 1014.2 |
| 20260903011523 | 81 | 79 | 0.0 | 5.0 | 0.00 | 0.01 | 0.01 | 89 | 1013.9 |
| 20260903011038 | 81 | 25 | 0.0 | 4.0 | 0.00 | 0.01 | 0.01 | 89 | 1013.9 |
| 20260903010553 | 81 | 99 | 0.0 | 2.0 | 0.00 | 0.01 | 0.01 | 88 | 1013.9 |
| 20260903010048 | 81 | 181 | 0.0 | 4.0 | 0.00 | 0.01 | 0.01 | 88 | 1013.8 |
| 20260903005524 | 81 | 93 | 1.0 | 5.0 | 0.00 | 0.01 | 0.01 | 88 | 1013.8 |
| 20260903005037 | 81 | 71 | 1.0 | 5.0 | 0.00 | 0.01 | 0.01 | 87 | 1013.8 |
| 20260903004532 | 81 | 103 | 0.0 | 5.0 | 0.00 | 0.01 | 0.01 | 87 | 1013.7 |
| 20260903004030 | 81 | 101 | 0.0 | 5.0 | 0.00 | 0.01 | 0.01 | 87 | 1013.7 |
| 20260903003526 | 81 | 80 | 1.0 | 5.0 | 0.00 | 0.01 | 0.01 | 87 | 1013.7 |
| 20260903003030 | 81 | 35 | 1.0 | 3.0 | 0.00 | 0.01 | 0.01 | 86 | 1013.5 |
| 20260903002546 | 81 | 129 | 0.0 | 3.0 | 0.00 | 0.01 | 0.01 | 85 | 1013.5 |
| 20260903002041 | 82 | 110 | 1.0 | 3.0 | 0.00 | 0.01 | 0.01 | 84 | 1013.5 |
| 20260903001531 | 82 | 77 | 0.0 | 4.0 | 0.00 | 0.01 | 0.01 | 84 | 1013.4 |
| 20260903001047 | 82 | 108 | 0.0 | 4.0 | 0.00 | 0.01 | 0.01 | 83 | 1013.4 |
| 20260903000533 | 82 | 49 | 1.0 | 4.0 | 0.00 | 0.01 | 0.01 | 83 | 1013.4 |
| 20260903000027 | 82 | 87 | 0.0 | 4.0 | 0.00 | 0.01 | 0.01 | 83 | 1013.6 |
| 20260902235523 | 82 | 106 | 1.0 | 4.0 | 0.00 | 0.01 | 0.01 | 83 | 1013.6 |
| 20260902235036 | 82 | 97 | 0.0 | 1.0 | 0.00 | 0.01 | 0.01 | 82 | 1013.6 |
| 20260902234532 | 83 | 97 | 0.0 | 3.0 | 0.00 | 0.01 | 0.01 | 81 | 1013.3 |
| 20260902234029 | 83 | 97 | 1.0 | 3.0 | 0.00 | 0.01 | 0.01 | 81 | 1013.3 |
| 20260902233525 | 83 | 77 | 0.0 | 3.0 | 0.00 | 0.01 | 0.01 | 81 | 1013.3 |
| 20260902233022 | 83 | 76 | 0.0 | 3.0 | 0.00 | 0.01 | 0.01 | 81 | 1013.2 |
| 20260902232537 | 83 | 113 | 1.0 | 3.0 | 0.00 | 0.01 | 0.01 | 80 | 1013.2 |
| 20260902232032 | 83 | 44 | 0.0 | 2.0 | 0.00 | 0.01 | 0.01 | 80 | 1013.2 |
| 20260902231529 | 83 | 83 | 0.0 | 3.0 | 0.00 | 0.01 | 0.01 | 79 | 1013.0 |
| 20260902231034 | 84 | 85 | 0.0 | 5.0 | 0.00 | 0.01 | 0.01 | 79 | 1013.0 |
| 20260902230532 | 84 | 89 | 2.0 | 5.0 | 0.00 | 0.01 | 0.01 | 78 | 1013.0 |
| 20260902230028 | 84 | 153 | 2.0 | 5.0 | 0.00 | 0.01 | 0.01 | 78 | 1013.0 |
| 20260902225537 | 84 | 94 | 1.0 | 5.0 | 0.00 | 0.01 | 0.01 | 77 | 1013.0 |
| 20260902225032 | 84 | 109 | 1.0 | 4.0 | 0.00 | 0.01 | 0.01 | 77 | 1013.0 |
| 20260902224527 | 84 | 119 | 1.0 | 3.0 | 0.00 | 0.01 | 0.01 | 76 | 1013.1 |
| 20260902224036 | 84 | 66 | 1.0 | 5.0 | 0.00 | 0.01 | 0.01 | 75 | 1013.1 |
| 20260902223533 | 84 | 53 | 2.0 | 5.0 | 0.00 | 0.01 | 0.01 | 74 | 1013.1 |
| 20260902223028 | 85 | 63 | 1.0 | 6.0 | 0.00 | 0.01 | 0.01 | 74 | 1013.0 |
| 20260902222536 | 85 | 96 | 2.0 | 6.0 | 0.00 | 0.01 | 0.01 | 73 | 1013.0 |
| 20260902222024 | 85 | 82 | 1.0 | 2.0 | 0.00 | 0.01 | 0.01 | 73 | 1013.0 |
| 20260902221533 | 85 | 66 | 1.0 | 4.0 | 0.00 | 0.01 | 0.01 | 73 | 1013.2 |
| 20260902221029 | 85 | 98 | 1.0 | 4.0 | 0.00 | 0.01 | 0.01 | 73 | 1013.2 |
| 20260902220545 | 85 | 46 | 1.0 | 3.0 | 0.00 | 0.01 | 0.01 | 72 | 1013.2 |
| 20260902220032 | 86 | 60 | 1.0 | 3.0 | 0.00 | 0.01 | 0.01 | 72 | 1013.2 |
| 20260902215528 | 86 | 63 | 0.0 | 2.0 | 0.00 | 0.01 | 0.01 | 72 | 1013.2 |
| 20260902215031 | 86 | 63 | 1.0 | 3.0 | 0.00 | 0.01 | 0.01 | 72 | 1013.2 |
| 20260902214527 | 86 | 60 | 1.0 | 3.0 | 0.00 | 0.01 | 0.01 | 71 | 1013.2 |
| 20260902214035 | 87 | 94 | 1.0 | 3.0 | 0.00 | 0.01 | 0.01 | 70 | 1013.2 |
| 20260902213530 | 87 | 58 | 1.0 | 3.0 | 0.00 | 0.01 | 0.01 | 70 | 1013.2 |
| 20260902213027 | 87 | 77 | 1.0 | 3.0 | 0.00 | 0.01 | 0.01 | 69 | 1013.1 |
| 20260902212537 | 88 | 56 | 1.0 | 4.0 | 0.00 | 0.01 | 0.01 | 69 | 1013.1 |
| 20260902212034 | 88 | 47 | 1.0 | 4.0 | 0.00 | 0.01 | 0.01 | 69 | 1013.1 |
| 20260902211550 | 88 | 48 | 2.0 | 5.0 | 0.00 | 0.01 | 0.01 | 68 | 1013.1 |
| 20260902211025 | 88 | 78 | 2.0 | 5.0 | 0.00 | 0.01 | 0.01 | 68 | 1013.1 |
| 20260902210541 | 88 | 158 | 2.0 | 5.0 | 0.00 | 0.01 | 0.01 | 67 | 1013.1 |
| 20260902210035 | 88 | 49 | 2.0 | 4.0 | 0.00 | 0.01 | 0.01 | 68 | 1013.2 |
| 20260902205530 | 88 | 59 | 1.0 | 3.0 | 0.00 | 0.01 | 0.01 | 69 | 1013.2 |
| 20260902205025 | 88 | 50 | 1.0 | 3.0 | 0.00 | 0.01 | 0.01 | 70 | 1013.2 |
| 20260902204535 | 88 | 173 | 1.0 | 4.0 | 0.00 | 0.01 | 0.01 | 69 | 1013.3 |
| 20260902204032 | 88 | 153 | 2.0 | 4.0 | 0.00 | 0.01 | 0.01 | 70 | 1013.3 |
| 20260902203528 | 88 | 127 | 1.0 | 3.0 | 0.00 | 0.01 | 0.01 | 69 | 1013.3 |
| 20260902203026 | 88 | 88 | 1.0 | 3.0 | 0.00 | 0.01 | 0.01 | 70 | 1013.2 |
| 20260902202522 | 88 | 97 | 1.0 | 3.0 | 0.00 | 0.01 | 0.01 | 69 | 1013.2 |
| 20260902202054 | 88 | 152 | 0.0 | 4.0 | 0.00 | 0.01 | 0.01 | 67 | 1013.2 |
| 20260902201529 | 89 | 67 | 2.0 | 4.0 | 0.00 | 0.01 | 0.01 | 67 | 1013.4 |
| 20260902201026 | 89 | 50 | 1.0 | 4.0 | 0.00 | 0.01 | 0.01 | 67 | 1013.4 |
| 20260902200523 | 89 | 79 | 2.0 | 6.0 | 0.00 | 0.01 | 0.01 | 69 | 1013.4 |
| 20260902200040 | 89 | 34 | 2.0 | 6.0 | 0.00 | 0.01 | 0.01 | 69 | 1013.5 |
| 20260902195553 | 89 | 69 | 2.0 | 5.0 | 0.00 | 0.01 | 0.01 | 70 | 1013.5 |
| 20260902195028 | 88 | 83 | 1.0 | 5.0 | 0.00 | 0.01 | 0.01 | 72 | 1013.5 |
| 20260902194525 | 88 | 75 | 1.0 | 5.0 | 0.00 | 0.01 | 0.01 | 73 | 1013.8 |
| 20260902194040 | 87 | 102 | 1.0 | 4.0 | 0.00 | 0.01 | 0.01 | 74 | 1013.8 |
| 20260902193556 | 87 | 137 | 1.0 | 4.0 | 0.00 | 0.01 | 0.01 | 77 | 1013.8 |
| 20260902193028 | 86 | 56 | 2.0 | 3.0 | 0.00 | 0.01 | 0.01 | 79 | 1014.1 |
| 20260902192525 | 85 | 53 | 2.0 | 4.0 | 0.00 | 0.01 | 0.01 | 80 | 1014.1 |
| 20260902192038 | 85 | 44 | 1.0 | 4.0 | 0.00 | 0.01 | 0.01 | 82 | 1014.1 |
| 20260902191530 | 84 | 71 | 1.0 | 7.0 | 0.00 | 0.01 | 0.01 | 81 | 1014.3 |
| 20260902191026 | 84 | 73 | 2.0 | 7.0 | 0.00 | 0.01 | 0.01 | 84 | 1014.3 |
| 20260902190523 | 84 | 77 | 1.0 | 2.0 | 0.00 | 0.01 | 0.01 | 84 | 1014.3 |
| 20260902190038 | 84 | 64 | 1.0 | 2.0 | 0.00 | 0.01 | 0.01 | 83 | 1014.3 |
| 20260902185531 | 84 | 89 | 0.0 | 2.0 | 0.00 | 0.01 | 0.01 | 84 | 1014.3 |
| 20260902185048 | 84 | 25 | 1.0 | 3.0 | 0.00 | 0.01 | 0.01 | 83 | 1014.3 |
| 20260902184527 | 84 | 68 | 1.0 | 5.0 | 0.00 | 0.01 | 0.01 | 83 | 1014.3 |
| 20260902184022 | 84 | 106 | 1.0 | 5.0 | 0.00 | 0.01 | 0.01 | 82 | 1014.3 |
| 20260902183558 | 84 | 79 | 1.0 | 2.0 | 0.00 | 0.01 | 0.01 | 83 | 1014.3 |
| 20260902183035 | 84 | 65 | 1.0 | 3.0 | 0.00 | 0.01 | 0.01 | 82 | 1014.3 |
| 20260902182531 | 84 | 104 | 1.0 | 3.0 | 0.00 | 0.01 | 0.01 | 82 | 1014.3 |
| 20260902182046 | 84 | 75 | 0.0 | 3.0 | 0.00 | 0.01 | 0.01 | 81 | 1014.3 |
| 20260902181535 | 84 | 72 | 1.0 | 2.0 | 0.00 | 0.01 | 0.01 | 80 | 1014.5 |
| 20260902181045 | 84 | 61 | 1.0 | 2.0 | 0.00 | 0.01 | 0.01 | 79 | 1014.5 |
| 20260902180553 | 84 | 82 | 0.0 | 2.0 | 0.00 | 0.01 | 0.01 | 79 | 1014.5 |
| 20260902180028 | 84 | 146 | 0.0 | 2.0 | 0.00 | 0.01 | 0.01 | 80 | 1014.6 |
| 20260902175526 | 84 | 76 | 1.0 | 2.0 | 0.00 | 0.01 | 0.01 | 81 | 1014.6 |
| 20260902175030 | 84 | 84 | 1.0 | 2.0 | 0.00 | 0.01 | 0.01 | 81 | 1014.6 |
| 20260902174526 | 84 | 127 | 1.0 | 3.0 | 0.00 | 0.01 | 0.01 | 80 | 1014.8 |
| 20260902174033 | 84 | 60 | 1.0 | 3.0 | 0.00 | 0.01 | 0.01 | 81 | 1014.8 |
| 20260902173529 | 84 | 53 | 0.0 | 2.0 | 0.00 | 0.01 | 0.01 | 81 | 1014.8 |
| 20260902173046 | 84 | 100 | 0.0 | 3.0 | 0.00 | 0.01 | 0.01 | 82 | 1014.8 |
| 20260902172557 | 84 | 99 | 2.0 | 3.0 | 0.00 | 0.01 | 0.01 | 83 | 1014.8 |
| 20260902172053 | 84 | 49 | 1.0 | 2.0 | 0.00 | 0.01 | 0.01 | 83 | 1014.8 |
| 20260902171529 | 84 | 31 | 1.0 | 2.0 | 0.00 | 0.01 | 0.01 | 82 | 1015.0 |
| 20260902171036 | 84 | 109 | 1.0 | 2.0 | 0.00 | 0.01 | 0.01 | 83 | 1015.0 |
| 20260902170533 | 84 | 103 | 1.0 | 2.0 | 0.00 | 0.01 | 0.01 | 83 | 1015.0 |
| 20260902170027 | 84 | 42 | 1.0 | 2.0 | 0.00 | 0.01 | 0.01 | 83 | 1015.1 |
| 20260902165525 | 84 | 15 | 0.0 | 3.0 | 0.00 | 0.01 | 0.01 | 83 | 1015.1 |
| 20260902165059 | 84 | 32 | 1.0 | 4.0 | 0.00 | 0.01 | 0.01 | 83 | 1015.1 |
| 20260902164533 | 84 | 63 | 1.0 | 4.0 | 0.00 | 0.01 | 0.01 | 82 | 1015.4 |
| 20260902164027 | 84 | 113 | 1.0 | 4.0 | 0.00 | 0.01 | 0.01 | 82 | 1015.4 |
| 20260902163523 | 84 | 61 | 2.0 | 4.0 | 0.00 | 0.01 | 0.01 | 83 | 1015.4 |
| 20260902163031 | 84 | 108 | 1.0 | 3.0 | 0.00 | 0.01 | 0.01 | 83 | 1015.5 |
| 20260902162526 | 84 | 84 | 1.0 | 3.0 | 0.00 | 0.01 | 0.01 | 83 | 1015.5 |
| 20260902162022 | 84 | 136 | 0.0 | 2.0 | 0.00 | 0.01 | 0.01 | 84 | 1015.5 |
| 20260902161538 | 84 | 136 | 0.0 | 3.0 | 0.00 | 0.01 | 0.01 | 84 | 1015.6 |
| 20260902161032 | 84 | 85 | 1.0 | 3.0 | 0.00 | 0.01 | 0.01 | 85 | 1015.6 |
| 20260902160548 | 83 | 68 | 0.0 | 2.0 | 0.00 | 0.01 | 0.01 | 85 | 1015.6 |
| 20260902160024 | 83 | 65 | 1.0 | 2.0 | 0.00 | 0.01 | 0.01 | 85 | 1015.9 |
| 20260902155532 | 83 | 66 | 1.0 | 2.0 | 0.00 | 0.01 | 0.01 | 85 | 1015.9 |
| 20260902155028 | 83 | 81 | 1.0 | 2.0 | 0.00 | 0.01 | 0.01 | 87 | 1015.9 |
| 20260902154537 | 83 | 103 | 0.0 | 2.0 | 0.00 | 0.01 | 0.01 | 87 | 1015.9 |
| 20260902154032 | 83 | 103 | 0.0 | 2.0 | 0.00 | 0.01 | 0.01 | 87 | 1015.9 |
| 20260902153548 | 83 | 60 | 2.0 | 2.0 | 0.00 | 0.01 | 0.01 | 86 | 1015.9 |
| 20260902153035 | 82 | 75 | 0.0 | 2.0 | 0.00 | 0.01 | 0.01 | 86 | 1015.6 |
| 20260902152532 | 82 | 11 | 0.0 | 2.0 | 0.00 | 0.01 | 0.01 | 86 | 1015.6 |
| 20260902152029 | 82 | 11 | 1.0 | 2.0 | 0.00 | 0.01 | 0.01 | 84 | 1015.6 |
| 20260902151536 | 82 | 13 | 1.0 | 2.0 | 0.00 | 0.01 | 0.01 | 86 | 1015.5 |
| 20260902151032 | 82 | 352 | 0.0 | 3.0 | 0.00 | 0.01 | 0.01 | 85 | 1015.5 |
| 20260902150529 | 82 | 359 | 0.0 | 3.0 | 0.00 | 0.01 | 0.01 | 86 | 1015.5 |
| 20260902150025 | 82 | 347 | 1.0 | 3.0 | 0.00 | 0.01 | 0.01 | 90 | 1015.7 |
| 20260902145523 | 82 | 342 | 1.0 | 3.0 | 0.00 | 0.01 | 0.01 | 94 | 1015.7 |
| 20260902145040 | 82 | 340 | 0.0 | 4.0 | 0.00 | 0.01 | 0.01 | 95 | 1015.7 |
| 20260902144533 | 82 | 340 | 1.0 | 4.0 | 0.00 | 0.01 | 0.01 | 96 | 1015.6 |
| 20260902144028 | 82 | 323 | 1.0 | 4.0 | 0.00 | 0.01 | 0.01 | 98 | 1015.6 |
| 20260902143525 | 82 | 210 | 1.0 | 2.0 | 0.00 | 0.01 | 0.01 | 100 | 1015.6 |
| 20260902143037 | 81 | 204 | 0.0 | 3.0 | 0.01 | 0.01 | 0.01 | 100 | 1015.5 |
| 20260902142553 | 81 | 203 | 1.0 | 3.0 | 0.01 | 0.01 | 0.01 | 100 | 1015.5 |
| 20260902142029 | 81 | 155 | 0.0 | 4.0 | 0.01 | 0.01 | 0.01 | 100 | 1015.5 |
| 20260902141533 | 81 | 155 | 3.0 | 4.0 | 0.01 | 0.01 | 0.01 | 100 | 1015.6 |
| 20260902141029 | 80 | 293 | 1.0 | 2.0 | 0.01 | 0.01 | 0.01 | 100 | 1015.6 |
| 20260902140524 | 80 | 293 | 0.0 | 2.0 | 0.01 | 0.01 | 0.01 | 100 | 1015.6 |
| 20260902140053 | 80 | 293 | 0.0 | 3.0 | 0.01 | 0.01 | 0.01 | 100 | 1015.4 |
| 20260902135527 | 80 | 293 | 1.0 | 3.0 | 0.01 | 0.01 | 0.01 | 100 | 1015.4 |
| 20260902135026 | 80 | 293 | 1.0 | 2.0 | 0.01 | 0.01 | 0.01 | 100 | 1015.4 |
| 20260902134523 | 80 | 293 | 0.0 | 2.0 | 0.01 | 0.01 | 0.01 | 100 | 1015.3 |
| 20260902134052 | 80 | 293 | 1.0 | 4.0 | 0.01 | 0.01 | 0.01 | 100 | 1015.3 |
| 20260902133547 | 80 | 293 | 2.0 | 4.0 | 0.01 | 0.01 | 0.01 | 100 | 1015.3 |
| 20260902133036 | 79 | 303 | 1.0 | 3.0 | 0.00 | 0.00 | 0.00 | 100 | 1015.4 |
| 20260902132530 | 79 | 328 | 0.0 | 3.0 | 0.00 | 0.00 | 0.00 | 100 | 1015.4 |
| 20260902132026 | 79 | 328 | 0.0 | 3.0 | 0.00 | 0.00 | 0.00 | 100 | 1015.4 |
| 20260902131522 | 79 | 328 | 1.0 | 3.0 | 0.00 | 0.00 | 0.00 | 100 | 1015.3 |
| 20260902131040 | 79 | 328 | 1.0 | 3.0 | 0.00 | 0.00 | 0.00 | 100 | 1015.3 |
| 20260902130533 | 79 | 328 | 0.0 | 3.0 | 0.00 | 0.00 | 0.00 | 100 | 1015.3 |
| 20260902130028 | 78 | 332 | 1.0 | 3.0 | 0.00 | 0.00 | 0.00 | 100 | 1015.3 |
| 20260902125523 | 78 | 328 | 0.0 | 3.0 | 0.00 | 0.00 | 0.00 | 100 | 1015.3 |
| 20260902125038 | 78 | 328 | 1.0 | 3.0 | 0.00 | 0.00 | 0.00 | 100 | 1015.3 |
| 20260902124533 | 78 | 328 | 2.0 | 4.0 | 0.00 | 0.00 | 0.00 | 100 | 1015.3 |
| 20260902124028 | 78 | 321 | 1.0 | 5.0 | 0.00 | 0.00 | 0.00 | 100 | 1015.3 |
| 20260902123537 | 78 | 304 | 2.0 | 5.0 | 0.00 | 0.00 | 0.00 | 100 | 1015.3 |
| 20260902123033 | 77 | 302 | 2.0 | 4.0 | 0.00 | 0.00 | 0.00 | 100 | 1014.9 |
| 20260902122529 | 77 | 326 | 0.0 | 2.0 | 0.00 | 0.01 | 0.00 | 100 | 1014.9 |
| 20260902122025 | 77 | 326 | 1.0 | 2.0 | 0.00 | 0.01 | 0.00 | 100 | 1014.9 |
| 20260902121539 | 77 | 326 | 0.0 | 3.0 | 0.00 | 0.01 | 0.00 | 100 | 1014.9 |
| 20260902121031 | 77 | 326 | 1.0 | 3.0 | 0.00 | 0.01 | 0.00 | 100 | 1014.9 |
| 20260902120528 | 77 | 325 | 0.0 | 2.0 | 0.00 | 0.01 | 0.00 | 100 | 1014.9 |
| 20260902120036 | 77 | 325 | 1.0 | 2.0 | 0.00 | 0.01 | 0.00 | 100 | 1014.8 |
| 20260902115550 | 76 | 325 | 0.0 | 1.0 | 0.00 | 0.01 | 0.00 | 100 | 1014.8 |
| 20260902115025 | 76 | 325 | 0.0 | 1.0 | 0.00 | 0.01 | 0.00 | 100 | 1014.8 |
| 20260902114530 | 76 | 325 | 0.0 | 1.0 | 0.00 | 0.01 | 0.00 | 100 | 1014.8 |
| 20260902114026 | 76 | 325 | 0.0 | 0.0 | 0.00 | 0.01 | 0.00 | 100 | 1014.8 |
| 20260902113522 | 76 | 325 | 0.0 | 0.0 | 0.00 | 0.01 | 0.00 | 100 | 1014.8 |
| 20260902113039 | 76 | 325 | 0.0 | 0.0 | 0.00 | 0.01 | 0.00 | 100 | 1014.6 |
| 20260902112533 | 76 | 325 | 0.0 | 0.0 | 0.00 | 0.01 | 0.00 | 100 | 1014.6 |
| 20260902112029 | 76 | 325 | 0.0 | 0.0 | 0.00 | 0.01 | 0.00 | 100 | 1014.6 |
| 20260902111526 | 76 | 325 | 0.0 | 0.0 | 0.00 | 0.01 | 0.00 | 100 | 1014.4 |
| 20260902111022 | 76 | 325 | 0.0 | 0.0 | 0.00 | 0.01 | 0.00 | 100 | 1014.4 |
| 20260902110538 | 76 | 325 | 0.0 | 0.0 | 0.00 | 0.01 | 0.00 | 100 | 1014.4 |
| 20260902110032 | 76 | 325 | 0.0 | 0.0 | 0.00 | 0.01 | 0.00 | 100 | 1014.5 |
| 20260902105525 | 76 | 325 | 0.0 | 0.0 | 0.00 | 0.01 | 0.00 | 100 | 1014.5 |
| 20260902105041 | 76 | 325 | 0.0 | 0.0 | 0.00 | 0.01 | 0.00 | 100 | 1014.5 |
| 20260902104529 | 76 | 325 | 0.0 | 0.0 | 0.00 | 0.01 | 0.00 | 100 | 1014.3 |
| 20260902104047 | 76 | 325 | 0.0 | 1.0 | 0.00 | 0.01 | 0.00 | 100 | 1014.3 |
| 20260902103555 | 76 | 325 | 0.0 | 1.0 | 0.00 | 0.01 | 0.00 | 100 | 1014.3 |
| 20260902103031 | 76 | 325 | 0.0 | 1.0 | 0.00 | 0.01 | 0.00 | 100 | 1014.2 |
| 20260902102527 | 77 | 325 | 0.0 | 2.0 | 0.00 | 0.01 | 0.00 | 100 | 1014.2 |
| 20260902102035 | 77 | 325 | 0.0 | 2.0 | 0.00 | 0.01 | 0.00 | 100 | 1014.2 |
| 20260902101531 | 77 | 324 | 0.0 | 0.0 | 0.00 | 0.01 | 0.00 | 100 | 1014.2 |
| 20260902101028 | 77 | 324 | 0.0 | 0.0 | 0.00 | 0.01 | 0.00 | 100 | 1014.2 |
| 20260902100537 | 77 | 324 | 0.0 | 0.0 | 0.00 | 0.01 | 0.00 | 100 | 1014.2 |
| 20260902100033 | 77 | 324 | 0.0 | 0.0 | 0.00 | 0.01 | 0.00 | 100 | 1014.1 |
| 20260902095529 | 77 | 324 | 0.0 | 0.0 | 0.00 | 0.01 | 0.00 | 100 | 1014.1 |
| 20260902095057 | 77 | 324 | 0.0 | 0.0 | 0.00 | 0.01 | 0.00 | 100 | 1014.1 |
| 20260902094532 | 77 | 324 | 0.0 | 0.0 | 0.00 | 0.01 | 0.00 | 100 | 1014.2 |
| 20260902094026 | 77 | 324 | 0.0 | 0.0 | 0.00 | 0.01 | 0.00 | 100 | 1014.2 |
| 20260902093551 | 77 | 324 | 0.0 | 0.0 | 0.00 | 0.01 | 0.00 | 100 | 1014.2 |
| 20260902093025 | 77 | 324 | 0.0 | 0.0 | 0.00 | 0.01 | 0.00 | 100 | 1014.2 |
| 20260902092541 | 77 | 324 | 0.0 | 0.0 | 0.00 | 0.01 | 0.00 | 100 | 1014.2 |
| 20260902092029 | 77 | 324 | 0.0 | 0.0 | 0.00 | 0.01 | 0.00 | 100 | 1014.2 |
| 20260902091526 | 77 | 324 | 0.0 | 0.0 | 0.00 | 0.01 | 0.00 | 100 | 1014.2 |
| 20260902091022 | 77 | 324 | 0.0 | 0.0 | 0.00 | 0.01 | 0.00 | 100 | 1014.2 |
| 20260902090531 | 77 | 324 | 0.0 | 0.0 | 0.00 | 0.01 | 0.00 | 100 | 1014.2 |
| 20260902090026 | 77 | 324 | 0.0 | 0.0 | 0.00 | 0.01 | 0.00 | 100 | 1014.1 |
| 20260902085602 | 77 | 324 | 0.0 | 0.0 | 0.00 | 0.01 | 0.00 | 100 | 1014.1 |
| 20260902085030 | 77 | 324 | 0.0 | 0.0 | 0.00 | 0.01 | 0.00 | 100 | 1014.1 |
| 20260902084527 | 77 | 324 | 0.0 | 0.0 | 0.00 | 0.01 | 0.00 | 100 | 1013.8 |
| 20260902084035 | 77 | 324 | 0.0 | 0.0 | 0.00 | 0.01 | 0.00 | 100 | 1013.8 |
| 20260902083552 | 77 | 324 | 0.0 | 0.0 | 0.00 | 0.01 | 0.00 | 100 | 1013.8 |
| 20260902083027 | 77 | 324 | 0.0 | 0.0 | 0.00 | 0.01 | 0.00 | 100 | 1013.9 |
| 20260902082556 | 77 | 324 | 0.0 | 0.0 | 0.00 | 0.01 | 0.00 | 100 | 1013.9 |
| 20260902082032 | 77 | 324 | 0.0 | 0.0 | 0.00 | 0.01 | 0.00 | 100 | 1013.9 |
| 20260902081525 | 77 | 324 | 0.0 | 0.0 | 0.00 | 0.01 | 0.00 | 100 | 1013.8 |
| 20260902081034 | 77 | 324 | 0.0 | 0.0 | 0.00 | 0.01 | 0.00 | 100 | 1013.8 |
| 20260902080530 | 77 | 324 | 0.0 | 0.0 | 0.00 | 0.01 | 0.00 | 100 | 1013.8 |
| 20260902080022 | 77 | 324 | 0.0 | 0.0 | 0.00 | 0.01 | 0.00 | 100 | 1013.9 |
| 20260902075537 | 77 | 324 | 0.0 | 0.0 | 0.00 | 0.01 | 0.00 | 100 | 1013.9 |
| 20260902075032 | 77 | 324 | 0.0 | 0.0 | 0.00 | 0.01 | 0.00 | 100 | 1013.9 |
| 20260902074526 | 77 | 324 | 0.0 | 0.0 | 0.00 | 0.01 | 0.00 | 100 | 1013.9 |
| 20260902074031 | 77 | 324 | 0.0 | 0.0 | 0.00 | 0.01 | 0.00 | 100 | 1013.9 |
| 20260902073527 | 77 | 324 | 0.0 | 0.0 | 0.00 | 0.01 | 0.00 | 100 | 1013.9 |
| 20260902073023 | 77 | 324 | 0.0 | 0.0 | 0.00 | 0.01 | 0.00 | 100 | 1014.1 |
| 20260902072551 | 77 | 324 | 0.0 | 0.0 | 0.00 | 0.01 | 0.00 | 100 | 1014.1 |
| 20260902072027 | 77 | 307 | 0.0 | 0.0 | 0.00 | 0.01 | 0.00 | 100 | 1014.1 |
| 20260902071523 | 77 | 308 | 0.0 | 0.0 | 0.00 | 0.01 | 0.00 | 100 | 1014.1 |
| 20260902071031 | 77 | 308 | 0.0 | 0.0 | 0.00 | 0.01 | 0.00 | 100 | 1014.1 |
| 20260902070527 | 77 | 307 | 0.0 | 0.0 | 0.00 | 0.01 | 0.00 | 100 | 1014.1 |
| 20260902070035 | 77 | 307 | 0.0 | 0.0 | 0.00 | 0.01 | 0.00 | 100 | 1014.2 |
| 20260902065527 | 77 | 308 | 0.0 | 0.0 | 0.00 | 0.01 | 0.00 | 100 | 1014.2 |